Wind_Speed
12 12 12 12 12 13 13 13 12 11 13 12 12 11 11 10 10 10 9 9 9 9 10 9 9 7 5 4 3 2 1 2 2 3 4 5 7 8 9 10 11 12 13 14
12 13 13 13 13 13 13 13 12 12 13 12 12 11 11 11 11 10 10 10 9 9 9 9 9 8 6 5 3 2 2 2 3 4 5 6 7 8 9 10 11 12 13 14
13 13 13 13 13 12 12 12 13 12 12 12 11 11 11 11 11 11 11 10 10 9 9 9 8 7 6 5 3 3 2 2 3 4 5 6 7 8 9 10 11 12 13 14
13 13 12 12 13 13 13 13 12 12 12 11 11 11 11 11 10 10 11 11 10 9 8 8 7 6 5 4 3 2 2 3 4 4 5 6 7 8 9 10 11 12 12 13
13 12 12 12 12 13 13 14 13 12 12 11 11 10 10 10 10 10 11 11 10 9 8 7 6 5 5 4 3 2 2 3 4 4 5 6 7 8 9 10 11 11 12 13
12 12 12 11 12 13 13 14 15 14 12 11 10 10 10 9 9 9 10 10 9 9 8 7 6 5 5 4 3 3 3 4 4 5 6 6 7 8 9 10 10 11 12 13
12 12 11 12 13 13 13 13 14 14 12 10 10 9 9 9 9 9 9 9 9 9 8 8 6 5 5 4 4 3 4 4 5 6 6 7 7 8 9 10 10 11 12 12
12 12 12 13 12 13 13 12 12 11 11 10 9 9 9 9 8 8 8 8 8 8 8 7 6 6 5 4 4 4 4 5 5 6 7 7 8 9 9 10 10 11 12 12
12 13 13 13 13 13 13 13 12 10 10 9 8 9 10 9 8 8 7 7 7 6 6 6 6 5 5 4 4 4 5 5 6 6 7 7 8 9 9 10 10 11 12 12
13 13 13 14 13 12 12 12 12 11 10 9 9 9 8 7 6 6 6 6 6 5 6 5 5 5 5 5 5 5 5 5 6 6 7 8 8 9 10 10 11 11 12 12
12 12 12 12 12 12 11 11 11 11 9 8 7 8 8 7 6 5 5 5 5 5 6 5 5 5 5 5 5 5 6 6 6 7 8 9 10 10 10 11 11 12 12 12
10 11 11 11 12 11 11 10 9 9 8 7 7 7 6 6 5 5 5 4 4 5 5 5 5 6 6 5 5 6 6 7 7 8 9 9 10 10 10 11 12 12 13 13
9 10 10 10 11 11 11 9 9 8 7 6 6 7 6 6 5 4 4 4 4 5 6 6 6 6 6 6 7 7 7 7 8 8 9 10 10 11 11 12 12 13 13 14
9 10 9 10 10 10 10 10 9 8 7 6 5 5 6 5 4 4 5 5 5 6 6 7 8 7 8 8 8 8 8 8 9 9 10 11 12 12 13 13 14 14 15 15
10 10 10 10 11 11 10 10 10 8 7 6 6 5 6 5 5 5 5 5 6 7 8 9 9 9 9 10 10 10 10 11 11 12 13 13 14 14 15 15 15 16 16 16
11 10 10 10 10 10 10 10 9 9 9 8 8 7 7 6 6 6 6 6 7 8 9 9 10 10 11 12 12 12 13 13 14 15 15 15 15 16 16 17 17 17 17 18
12 11 11 11 11 11 10 10 10 10 10 10 9 8 7 7 7 7 8 8 9 10 10 11 12 12 13 14 14 15 15 16 17 17 18 18 18 18 18 19 20 20 20 20
13 13 13 13 12 12 11 11 11 11 11 10 9 9 8 8 9 9 9 10 10 11 12 13 14 14 15 16 16 17 18 19 19 20 20 21 21 21 21 22 22 23 23 24
14 14 14 14 15 14 13 13 12 12 11 11 10 10 10 10 11 11 11 12 12 13 14 15 16 17 17 18 19 20 20 21 22 22 23 23 24 24 24 25 26 26 26 27
16 16 16 16 16 15 13 13 13 13 12 12 12 12 12 12 13 13 14 14 15 16 17 17 18 19 20 21 21 22 23 23 24 25 25 26 27 27 28 28 29 29 29 30
18 18 17 16 16 15 14 14 14 13 12 13 14 14 14 15 15 15 16 17 18 19 19 20 21 22 23 23 24 25 26 26 27 28 29 29 30 31 31 32 32 32 32 33
19 19 19 18 18 16 15 15 15 14 15 15 15 16 17 17 18 18 19 20 21 22 22 23 24 25 26 26 27 28 29 30 30 31 32 33 34 34 34 35 35 35 36 35
20 20 20 20 19 17 17 17 17 17 17 17 18 18 19 20 21 21 22 23 24 25 26 26 27 28 28 29 30 31 32 33 33 34 35 36 37 37 38 38 38 38 39 39
21 21 21 21 20 19 19 19 20 20 20 20 21 21 22 23 24 25 25 26 27 28 28 29 30 30 31 32 33 34 35 36 36 38 39 39 40 40 41 41 41 42 42 42
22 22 22 22 21 20 21 21 22 22 23 23 24 24 25 26 27 27 28 28 29 30 31 32 33 33 34 35 36 37 38 39 40 41 42 43 43 43 43 44 45 45 45 45
23 23 23 23 23 23 23 24 24 25 25 26 26 27 27 28 29 30 31 32 32 33 33 35 36 36 37 38 39 40 41 42 43 44 45 45 45 45 46 46 47 47 47 47
Wind_Direction
175 176 178 179 182 185 184 183 180 179 180 179 183 187 188 187 189 187 187 182 183 185 184 185 184 182 183 190 192 196 255 292 309 328 338 344 345 347 349 349 348 348 348 349
168 169 171 174 177 178 178 178 177 176 174 177 176 177 181 179 182 184 184 182 182 183 187 188 189 187 188 192 194 217 259 294 315 330 338 341 341 344 346 346 347 348 350 352
163 165 168 171 174 173 169 171 175 175 170 167 165 172 178 179 177 177 180 180 180 181 185 189 193 191 192 193 203 230 257 297 314 325 331 334 336 340 343 343 345 347 348 351
159 160 165 169 175 171 167 167 169 171 168 163 165 165 171 173 170 168 172 177 178 180 182 188 190 190 195 193 213 242 272 299 309 320 327 330 333 337 341 344 344 344 346 349
158 162 167 172 174 168 162 167 164 163 164 165 163 161 161 161 161 163 167 170 173 177 181 186 191 195 193 200 215 237 276 295 303 317 322 327 331 334 338 342 342 342 344 347
162 166 171 174 168 165 163 160 159 158 158 157 160 163 158 152 153 155 159 164 167 172 182 188 194 200 196 203 216 236 272 290 302 314 319 321 326 330 333 337 340 341 342 343
162 165 168 170 166 162 159 159 159 160 158 159 161 164 156 155 154 154 158 163 165 172 183 190 199 203 204 218 230 251 276 288 300 311 316 320 324 328 332 335 337 339 340 341
155 157 160 162 161 163 162 162 165 165 160 158 160 160 160 156 155 155 156 165 172 181 188 194 200 201 212 229 245 263 276 287 298 307 314 318 322 325 329 333 334 337 339 340
152 156 159 162 160 163 166 170 170 169 165 164 162 158 157 150 149 147 154 165 174 180 189 197 198 204 219 236 253 271 281 292 300 305 313 317 320 324 327 330 331 334 337 339
151 153 159 159 163 166 167 171 177 175 169 167 163 160 153 148 152 155 161 171 175 183 195 198 199 217 233 245 257 273 288 296 300 306 311 312 314 318 321 323 327 330 332 335
158 158 162 161 161 164 163 170 179 177 176 174 169 164 164 157 157 165 172 175 180 191 204 207 214 229 244 253 262 272 284 294 300 305 309 311 312 315 317 318 321 325 327 329
165 165 165 168 175 178 175 175 175 177 176 179 182 176 177 172 168 170 175 185 195 203 212 220 235 244 252 258 266 274 283 291 299 305 308 311 311 313 316 317 319 321 322 323
172 172 175 176 182 184 186 187 187 190 197 199 199 191 187 184 182 183 192 206 222 225 227 233 242 252 258 264 272 280 287 292 297 304 309 310 312 312 314 316 316 316 316 316
181 178 177 175 176 182 190 197 202 206 213 214 219 209 198 196 194 201 210 223 233 239 243 246 252 257 261 266 274 281 288 293 297 303 308 313 313 313 313 313 313 313 313 313
191 191 191 188 188 191 196 204 211 215 217 221 227 222 211 215 216 219 227 238 246 252 257 261 261 264 267 271 276 281 286 292 295 298 303 308 308 308 309 309 310 309 309 309
203 205 205 205 202 202 207 210 214 220 221 223 228 229 226 230 233 236 243 251 258 261 265 269 272 274 274 276 278 281 285 288 291 293 296 300 301 302 304 304 305 306 306 305
211 215 218 217 219 220 217 217 219 222 226 229 233 237 240 239 244 247 254 262 267 269 272 275 276 278 279 280 280 282 286 288 290 292 293 295 296 297 298 300 300 301 302 303
217 219 224 227 227 226 224 225 225 227 229 233 236 238 242 243 246 253 259 265 270 276 277 276 277 279 282 283 283 284 285 287 288 290 291 292 294 295 295 296 297 298 298 299
224 223 225 228 228 228 229 232 233 232 232 235 239 245 250 252 255 257 262 268 274 278 279 279 280 282 283 283 283 284 285 286 287 288 289 291 293 294 294 295 296 296 297 297
228 229 231 231 231 231 231 234 236 235 236 241 247 251 255 258 261 263 266 270 275 277 279 280 281 282 284 285 284 284 285 286 287 287 289 291 292 293 294 295 295 295 296 296
233 234 235 237 238 237 238 241 241 242 245 247 251 255 257 260 263 266 268 271 275 277 279 281 282 283 284 285 285 285 286 287 288 288 289 290 292 293 293 293 293 294 294 295
238 238 239 242 243 243 244 245 246 249 249 251 253 256 260 263 265 267 270 273 275 278 280 282 283 283 284 285 285 286 287 288 288 289 289 290 291 292 293 293 293 293 293 293
241 242 243 245 247 249 250 251 252 253 255 256 258 260 263 266 269 270 272 274 277 279 281 283 284 284 285 286 287 287 287 287 288 289 290 291 291 291 291 292 292 292 292 291
246 246 246 247 248 250 252 253 255 257 259 261 263 264 266 268 271 273 274 275 277 279 281 283 284 285 285 286 287 287 287 287 288 289 289 290 291 291 291 292 292 292 291 290
247 248 249 250 252 253 253 255 258 259 261 263 265 267 269 271 273 274 276 277 278 279 281 283 284 285 286 286 286 287 287 288 289 289 290 291 291 291 291 291 292 292 291 289
247 250 252 252 253 254 255 256 259 262 264 266 269 271 272 273 274 275 276 277 279 280 281 283 284 286 287 288 288 288 288 289 290 290 291 291 291 291 291 291 291 291 290 289
Height
5817 5820 5822 5824 5826 5829 5831 5833 5835 5837 5839 5842 5844 5846 5848 5849 5851 5852 5854 5856 5857 5860 5861 5862 5863 5864 5865 5866 5866 5866 5866 5866 5865 5864 5863 5862 5861 5859 5857 5855 5853 5850 5848 5845
5818 5819 5822 5823 5826 5828 5830 5833 5835 5837 5838 5841 5843 5845 5847 5848 5850 5852 5853 5855 5857 5859 5860 5861 5862 5863 5864 5864 5865 5865 5865 5865 5864 5863 5862 5861 5860 5858 5856 5854 5852 5849 5847 5844
5817 5820 5822 5824 5826 5828 5830 5833 5835 5836 5838 5840 5842 5844 5846 5848 5849 5850 5852 5854 5856 5858 5859 5860 5861 5862 5863 5863 5864 5864 5864 5863 5863 5862 5861 5860 5859 5857 5855 5853 5851 5848 5846 5843
5818 5820 5822 5824 5826 5828 5830 5832 5834 5836 5838 5840 5842 5844 5845 5846 5848 5850 5852 5853 5855 5857 5858 5859 5860 5861 5862 5862 5862 5862 5862 5862 5862 5861 5860 5859 5857 5856 5854 5852 5850 5848 5845 5842
5819 5821 5823 5824 5826 5827 5829 5831 5834 5836 5838 5840 5842 5844 5846 5846 5847 5849 5851 5853 5854 5856 5857 5859 5860 5860 5861 5861 5861 5862 5862 5861 5861 5860 5859 5858 5856 5855 5853 5851 5849 5846 5844 5841
5820 5822 5823 5824 5826 5828 5830 5832 5834 5836 5838 5840 5842 5844 5845 5846 5847 5849 5850 5852 5853 5855 5856 5858 5859 5859 5860 5860 5861 5861 5861 5860 5859 5858 5857 5856 5855 5854 5852 5850 5848 5845 5843 5840
5821 5822 5824 5825 5827 5829 5831 5833 5835 5836 5838 5840 5842 5843 5845 5846 5847 5848 5850 5851 5852 5854 5855 5857 5858 5858 5859 5859 5860 5860 5860 5859 5858 5857 5856 5855 5854 5852 5850 5848 5846 5844 5842 5839
5821 5823 5825 5826 5828 5830 5831 5834 5837 5838 5839 5840 5841 5842 5845 5845 5847 5848 5849 5850 5852 5853 5854 5855 5856 5857 5858 5858 5858 5858 5858 5857 5856 5856 5854 5853 5852 5851 5849 5847 5845 5843 5841 5838
5823 5824 5826 5827 5829 5831 5832 5834 5836 5838 5838 5840 5841 5842 5844 5845 5846 5848 5849 5850 5851 5852 5853 5854 5855 5856 5857 5857 5857 5857 5857 5856 5855 5854 5853 5852 5850 5849 5847 5845 5843 5841 5839 5837
5824 5825 5826 5828 5829 5831 5833 5834 5836 5838 5838 5839 5841 5842 5844 5845 5846 5847 5848 5849 5850 5852 5853 5853 5854 5855 5855 5855 5855 5855 5855 5854 5853 5852 5851 5850 5849 5847 5845 5844 5842 5840 5838 5836
5825 5826 5828 5829 5830 5832 5834 5835 5835 5837 5838 5840 5840 5844 5843 5844 5845 5846 5847 5848 5850 5851 5852 5852 5853 5853 5854 5854 5854 5853 5853 5852 5851 5850 5849 5848 5847 5845 5843 5842 5840 5838 5836 5834
5825 5827 5828 5829 5831 5832 5834 5835 5836 5838 5838 5839 5841 5845 5843 5844 5845 5845 5847 5848 5849 5850 5851 5851 5852 5852 5852 5852 5852 5852 5851 5850 5849 5848 5847 5846 5844 5843 5841 5839 5838 5836 5834 5832
5826 5828 5829 5830 5832 5833 5833 5835 5836 5837 5838 5839 5841 5845 5842 5843 5844 5845 5845 5847 5848 5848 5849 5850 5850 5850 5850 5850 5850 5850 5849 5848 5847 5846 5845 5843 5842 5840 5839 5837 5835 5833 5832 5830
5826 5827 5829 5831 5831 5832 5833 5834 5835 5837 5838 5839 5840 5841 5842 5842 5843 5844 5844 5845 5846 5847 5847 5848 5848 5848 5848 5848 5848 5847 5846 5845 5844 5843 5842 5841 5839 5837 5836 5834 5832 5831 5829 5827
5825 5826 5827 5829 5830 5831 5832 5833 5835 5836 5837 5838 5839 5840 5841 5841 5842 5843 5843 5844 5844 5845 5845 5845 5845 5845 5845 5845 5845 5844 5843 5842 5841 5840 5839 5838 5836 5834 5832 5831 5829 5827 5825 5823
5823 5825 5826 5827 5828 5829 5831 5832 5833 5834 5835 5836 5837 5839 5839 5840 5840 5841 5842 5842 5842 5842 5842 5842 5842 5842 5841 5841 5841 5840 5840 5839 5838 5837 5835 5834 5832 5830 5829 5827 5825 5823 5821 5819
5821 5823 5825 5826 5826 5827 5829 5830 5831 5832 5833 5834 5836 5837 5837 5838 5838 5839 5839 5840 5840 5839 5839 5839 5839 5838 5838 5837 5837 5836 5835 5834 5833 5832 5831 5829 5828 5826 5824 5823 5821 5819 5817 5815
5819 5821 5822 5823 5825 5826 5829 5828 5829 5830 5831 5832 5833 5834 5835 5835 5836 5836 5836 5836 5836 5836 5836 5835 5835 5834 5834 5833 5832 5831 5830 5829 5828 5827 5825 5824 5823 5821 5819 5817 5815 5813 5811 5809
5816 5818 5819 5820 5821 5823 5825 5825 5826 5827 5828 5829 5830 5831 5831 5832 5832 5833 5833 5833 5833 5832 5832 5831 5830 5830 5829 5828 5827 5826 5825 5824 5822 5821 5820 5818 5816 5814 5812 5810 5808 5806 5804 5801
5813 5814 5816 5817 5818 5819 5822 5822 5823 5824 5825 5826 5826 5827 5828 5828 5829 5830 5829 5829 5828 5828 5827 5826 5825 5824 5823 5822 5821 5820 5819 5817 5816 5814 5813 5811 5809 5807 5805 5802 5800 5798 5796 5793
5809 5810 5811 5812 5814 5815 5818 5818 5819 5822 5823 5822 5823 5823 5823 5824 5825 5825 5824 5823 5823 5822 5821 5820 5819 5818 5817 5816 5814 5813 5812 5810 5809 5807 5805 5803 5801 5798 5796 5794 5791 5789 5786 5784
5804 5806 5807 5808 5809 5813 5813 5813 5815 5817 5817 5817 5818 5818 5818 5819 5819 5819 5818 5818 5817 5816 5815 5814 5813 5812 5810 5808 5807 5805 5804 5802 5800 5798 5796 5794 5791 5789 5786 5784 5781 5778 5776 5773
5799 5801 5802 5804 5807 5807 5808 5809 5810 5811 5811 5812 5812 5813 5813 5813 5812 5812 5812 5811 5811 5810 5808 5807 5806 5804 5803 5801 5799 5797 5795 5793 5791 5789 5786 5784 5781 5779 5776 5773 5770 5767 5764 5762
5793 5794 5796 5798 5799 5801 5802 5803 5804 5805 5805 5805 5806 5806 5806 5806 5806 5806 5805 5804 5803 5802 5801 5799 5798 5796 5794 5792 5790 5787 5785 5783 5781 5778 5776 5773 5770 5767 5764 5761 5758 5755 5752 5749
5787 5788 5790 5791 5793 5794 5796 5796 5797 5797 5798 5798 5798 5799 5799 5799 5798 5797 5797 5796 5795 5794 5792 5790 5789 5787 5785 5782 5780 5777 5775 5772 5769 5766 5764 5761 5758 5755 5752 5749 5745 5742 5739 5735
5781 5782 5784 5785 5787 5788 5789 5789 5790 5790 5790 5790 5791 5791 5791 5790 5789 5789 5788 5787 5785 5784 5783 5781 5778 5776 5774 5771 5769 5766 5763 5760 5757 5754 5751 5748 5744 5741 5738 5735 5732 5728 5724 5721